QPF
0.00 0.00 0.00 0.00 0.00 0.00 0.00 0.00 0.00 0.00 0.00 0.00 0.00 0.00 0.00 0.00 0.00 0.00 0.00 0.00 0.00 0.00 0.00 0.00 0.00 0.00 0.00 0.00 0.00 0.00 0.00 0.00 0.00 0.00 0.00 0.00 0.00 0.00 0.00 0.00 0.00 0.00 0.00 0.00 0.00
0.00 0.00 0.00 0.00 0.00 0.00 0.00 0.00 0.00 0.00 0.00 0.00 0.00 0.00 0.00 0.00 0.00 0.00 0.00 0.00 0.00 0.00 0.00 0.00 0.00 0.00 0.00 0.00 0.00 0.00 0.00 0.00 0.00 0.00 0.00 0.00 0.00 0.00 0.00 0.00 0.00 0.00 0.00 0.00 0.00
0.00 0.00 0.00 0.00 0.00 0.00 0.00 0.00 0.00 0.00 0.00 0.00 0.00 0.00 0.00 0.00 0.00 0.00 0.00 0.00 0.00 0.00 0.00 0.00 0.00 0.00 0.00 0.00 0.00 0.00 0.00 0.00 0.00 0.00 0.00 0.00 0.00 0.00 0.00 0.00 0.00 0.00 0.00 0.00 0.00
0.00 0.00 0.00 0.00 0.00 0.00 0.00 0.00 0.00 0.00 0.00 0.00 0.00 0.00 0.00 0.00 0.00 0.00 0.00 0.00 0.00 0.00 0.00 0.00 0.00 0.00 0.00 0.00 0.00 0.00 0.00 0.00 0.00 0.00 0.00 0.00 0.00 0.00 0.00 0.00 0.00 0.00 0.00 0.00 0.00
0.00 0.00 0.00 0.00 0.00 0.00 0.00 0.00 0.00 0.00 0.00 0.00 0.00 0.00 0.00 0.00 0.00 0.00 0.00 0.00 0.00 0.00 0.00 0.00 0.00 0.00 0.00 0.00 0.00 0.00 0.00 0.00 0.00 0.00 0.00 0.00 0.00 0.00 0.00 0.00 0.00 0.00 0.00 0.00 0.00
0.00 0.00 0.00 0.00 0.00 0.00 0.00 0.00 0.00 0.00 0.00 0.00 0.00 0.00 0.00 0.00 0.00 0.00 0.00 0.00 0.00 0.00 0.00 0.00 0.00 0.00 0.00 0.00 0.00 0.00 0.00 0.00 0.00 0.00 0.00 0.00 0.00 0.00 0.00 0.00 0.00 0.00 0.00 0.00 0.00
0.00 0.00 0.00 0.00 0.00 0.00 0.00 0.00 0.00 0.00 0.00 0.00 0.00 0.00 0.00 0.00 0.00 0.00 0.00 0.00 0.00 0.00 0.00 0.00 0.00 0.00 0.00 0.00 0.00 0.00 0.00 0.00 0.00 0.00 0.00 0.00 0.00 0.00 0.00 0.00 0.00 0.00 0.00 0.00 0.00
0.00 0.00 0.00 0.00 0.00 0.00 0.00 0.00 0.00 0.00 0.00 0.00 0.00 0.00 0.00 0.00 0.00 0.00 0.00 0.00 0.00 0.00 0.00 0.00 0.00 0.00 0.00 0.00 0.00 0.00 0.00 0.00 0.00 0.00 0.00 0.00 0.00 0.00 0.00 0.00 0.00 0.00 0.00 0.00 0.00
0.00 0.00 0.00 0.00 0.00 0.00 0.00 0.00 0.00 0.00 0.00 0.00 0.00 0.00 0.00 0.00 0.00 0.00 0.00 0.00 0.00 0.00 0.00 0.00 0.00 0.00 0.00 0.00 0.00 0.00 0.00 0.00 0.00 0.00 0.00 0.00 0.00 0.00 0.00 0.00 0.00 0.00 0.00 0.00 0.00
0.00 0.00 0.00 0.00 0.00 0.00 0.00 0.00 0.00 0.00 0.00 0.00 0.00 0.00 0.00 0.00 0.00 0.00 0.00 0.00 0.00 0.00 0.00 0.00 0.00 0.00 0.00 0.00 0.00 0.00 0.00 0.00 0.00 0.00 0.00 0.00 0.00 0.00 0.00 0.00 0.00 0.00 0.00 0.01 0.01
0.00 0.00 0.00 0.00 0.00 0.00 0.00 0.00 0.00 0.00 0.00 0.00 0.00 0.00 0.00 0.00 0.00 0.00 0.00 0.00 0.00 0.00 0.00 0.00 0.00 0.00 0.00 0.00 0.00 0.00 0.00 0.00 0.00 0.00 0.00 0.00 0.00 0.00 0.00 0.00 0.00 0.00 0.00 0.01 0.05
0.00 0.00 0.00 0.00 0.00 0.00 0.00 0.00 0.00 0.00 0.00 0.00 0.00 0.00 0.00 0.00 0.00 0.00 0.00 0.00 0.00 0.00 0.00 0.00 0.00 0.00 0.00 0.00 0.00 0.00 0.00 0.00 0.00 0.00 0.00 0.00 0.00 0.00 0.00 0.00 0.00 0.02 0.05 0.08 0.05
0.00 0.00 0.00 0.00 0.00 0.00 0.00 0.00 0.00 0.01 0.03 0.00 0.00 0.00 0.00 0.00 0.00 0.00 0.00 0.00 0.00 0.00 0.00 0.00 0.00 0.00 0.00 0.00 0.00 0.00 0.00 0.00 0.00 0.00 0.00 0.00 0.00 0.00 0.00 0.00 0.00 0.00 0.02 0.04 0.09
0.00 0.00 0.00 0.00 0.00 0.00 0.00 0.00 0.00 0.03 0.05 0.00 0.00 0.00 0.00 0.00 0.00 0.00 0.00 0.00 0.00 0.00 0.00 0.00 0.00 0.00 0.00 0.00 0.00 0.00 0.00 0.00 0.00 0.00 0.00 0.00 0.00 0.00 0.00 0.00 0.00 0.00 0.00 0.01 0.06
0.00 0.00 0.00 0.00 0.00 0.00 0.00 0.00 0.01 0.04 0.08 0.00 0.00 0.00 0.00 0.00 0.00 0.00 0.00 0.00 0.00 0.00 0.00 0.00 0.00 0.00 0.00 0.00 0.00 0.00 0.00 0.00 0.00 0.00 0.00 0.00 0.00 0.00 0.00 0.00 0.00 0.00 0.00 0.01 0.11
0.01 0.00 0.00 0.01 0.00 0.01 0.00 0.01 0.03 0.07 0.04 0.00 0.00 0.00 0.00 0.00 0.00 0.00 0.00 0.00 0.00 0.00 0.00 0.00 0.00 0.00 0.00 0.00 0.00 0.00 0.00 0.00 0.00 0.00 0.00 0.00 0.00 0.00 0.00 0.00 0.00 0.00 0.00 0.01 0.11
0.02 0.01 0.02 0.02 0.00 0.00 0.01 0.03 0.05 0.03 0.00 0.00 0.00 0.00 0.00 0.00 0.00 0.00 0.00 0.00 0.00 0.00 0.00 0.00 0.00 0.00 0.00 0.00 0.00 0.00 0.00 0.00 0.00 0.00 0.00 0.00 0.00 0.00 0.00 0.00 0.00 0.00 0.00 0.00 0.10
0.02 0.03 0.03 0.02 0.03 0.03 0.04 0.04 0.03 0.00 0.00 0.01 0.00 0.00 0.00 0.00 0.00 0.00 0.00 0.00 0.00 0.00 0.00 0.00 0.00 0.00 0.00 0.00 0.00 0.00 0.00 0.00 0.00 0.00 0.00 0.00 0.00 0.00 0.00 0.00 0.00 0.00 0.00 0.00 0.04
0.03 0.04 0.05 0.07 0.10 0.08 0.09 0.06 0.00 0.00 0.00 0.00 0.01 0.02 0.00 0.00 0.00 0.00 0.00 0.00 0.00 0.00 0.00 0.00 0.00 0.00 0.00 0.00 0.00 0.00 0.00 0.00 0.00 0.00 0.00 0.00 0.00 0.00 0.00 0.00 0.00 0.00 0.00 0.00 0.01
0.16 0.18 0.08 0.08 0.09 0.09 0.08 0.03 0.00 0.00 0.01 0.03 0.03 0.02 0.00 0.00 0.00 0.00 0.00 0.00 0.00 0.00 0.00 0.00 0.00 0.00 0.00 0.00 0.00 0.00 0.00 0.00 0.00 0.00 0.00 0.00 0.00 0.00 0.00 0.00 0.00 0.00 0.00 0.00 0.00
0.28 0.28 0.10 0.07 0.06 0.07 0.03 0.00 0.00 0.00 0.02 0.04 0.01 0.02 0.00 0.00 0.00 0.00 0.00 0.00 0.00 0.00 0.00 0.00 0.00 0.00 0.00 0.00 0.00 0.00 0.00 0.00 0.00 0.00 0.00 0.00 0.00 0.00 0.00 0.00 0.00 0.00 0.00 0.00 0.00
0.07 0.19 0.09 0.07 0.06 0.04 0.01 0.01 0.01 0.00 0.03 0.05 0.01 0.00 0.00 0.00 0.00 0.00 0.00 0.00 0.00 0.00 0.00 0.00 0.00 0.00 0.00 0.00 0.00 0.00 0.00 0.00 0.00 0.00 0.00 0.00 0.00 0.00 0.00 0.00 0.00 0.00 0.00 0.00 0.00
0.02 0.03 0.05 0.08 0.05 0.02 0.01 0.02 0.05 0.03 0.06 0.06 0.01 0.00 0.00 0.00 0.00 0.00 0.00 0.00 0.00 0.00 0.00 0.00 0.00 0.00 0.00 0.00 0.00 0.00 0.00 0.00 0.00 0.00 0.00 0.00 0.00 0.00 0.00 0.00 0.00 0.00 0.00 0.00 0.00
0.02 0.05 0.07 0.07 0.05 0.03 0.03 0.04 0.04 0.05 0.07 0.03 0.00 0.00 0.00 0.00 0.00 0.00 0.00 0.00 0.00 0.00 0.00 0.00 0.00 0.00 0.00 0.00 0.00 0.00 0.00 0.00 0.00 0.00 0.00 0.00 0.00 0.00 0.00 0.00 0.00 0.00 0.00 0.00 0.00
0.09 0.06 0.07 0.07 0.02 0.03 0.07 0.08 0.02 0.03 0.04 0.02 0.01 0.00 0.00 0.00 0.00 0.00 0.00 0.00 0.00 0.00 0.00 0.00 0.00 0.00 0.00 0.00 0.00 0.00 0.00 0.00 0.00 0.00 0.00 0.00 0.00 0.00 0.00 0.00 0.00 0.00 0.00 0.00 0.00
0.33 0.15 0.06 0.03 0.03 0.04 0.09 0.06 0.06 0.11 0.06 0.02 0.02 0.00 0.00 0.00 0.00 0.00 0.00 0.00 0.00 0.00 0.00 0.00 0.00 0.00 0.00 0.00 0.00 0.00 0.00 0.00 0.00 0.00 0.00 0.00 0.00 0.00 0.00 0.00 0.00 0.00 0.00 0.00 0.00
0.32 0.18 0.19 0.21 0.09 0.05 0.05 0.02 0.03 0.07 0.07 0.01 0.02 0.01 0.00 0.00 0.00 0.00 0.00 0.00 0.00 0.00 0.00 0.00 0.00 0.00 0.00 0.00 0.00 0.00 0.00 0.00 0.00 0.00 0.00 0.00 0.00 0.00 0.00 0.00 0.00 0.00 0.00 0.00 0.00
MSLP
1020.35 1020.27 1019.95 1019.42 1019.25 1018.99 1018.74 1018.60 1018.48 1018.20 1018.03 1018.04 1017.93 1017.76 1017.65 1017.55 1017.22 1017.02 1017.07 1016.90 1016.33 1015.88 1015.69 1015.63 1015.25 1015.29 1015.29 1015.73 1015.97 1016.52 1017.83 1018.66 1018.37 1018.29 1018.09 1018.09 1018.29 1018.46 1018.67 1019.03 1019.27 1019.45 1019.45 1018.30 1017.45
1020.36 1020.02 1019.98 1019.70 1019.31 1019.00 1018.97 1018.69 1018.45 1018.14 1017.92 1017.78 1017.84 1017.72 1017.46 1017.38 1017.53 1017.32 1016.98 1016.43 1016.11 1015.81 1015.92 1015.98 1015.74 1015.61 1015.75 1016.04 1016.42 1016.99 1017.97 1017.94 1017.80 1017.74 1017.93 1017.94 1018.23 1018.58 1019.09 1019.45 1019.68 1019.62 1019.16 1018.39 1017.51
1020.32 1020.22 1019.98 1019.93 1019.49 1018.99 1018.57 1018.65 1018.55 1018.09 1017.90 1017.73 1017.46 1017.47 1017.44 1017.29 1017.47 1017.29 1016.67 1016.40 1016.11 1015.90 1015.95 1015.89 1015.93 1015.99 1016.02 1016.26 1016.64 1017.02 1017.49 1017.40 1017.33 1017.22 1017.40 1017.70 1018.31 1018.81 1019.44 1019.86 1019.88 1018.94 1018.11 1018.24 1017.64
1020.47 1020.08 1019.93 1019.67 1019.75 1019.27 1018.77 1018.36 1018.40 1018.10 1017.72 1017.69 1017.39 1017.14 1017.07 1017.33 1017.48 1016.99 1016.53 1016.38 1016.21 1015.95 1015.85 1015.82 1015.90 1016.30 1016.61 1016.74 1016.73 1016.94 1017.06 1017.15 1017.01 1016.99 1017.26 1017.81 1018.44 1019.29 1020.10 1020.47 1019.82 1019.49 1018.63 1018.18 1017.81
1020.42 1020.22 1019.84 1019.61 1019.45 1019.16 1018.86 1018.47 1017.98 1017.70 1017.68 1017.59 1017.40 1017.07 1017.01 1017.33 1017.15 1016.70 1016.46 1016.48 1016.31 1016.24 1016.23 1016.23 1016.47 1016.85 1016.99 1016.97 1016.91 1017.00 1017.06 1017.03 1016.87 1017.03 1017.33 1017.94 1018.88 1019.57 1020.12 1019.82 1019.58 1019.17 1018.66 1018.13 1017.58
1020.28 1019.99 1019.89 1019.80 1019.39 1019.08 1018.97 1018.34 1017.84 1017.47 1017.38 1017.33 1017.39 1016.98 1017.07 1017.15 1016.76 1016.79 1016.51 1016.57 1016.43 1016.48 1016.58 1016.41 1016.73 1016.83 1017.05 1017.07 1017.21 1016.94 1017.06 1017.01 1016.71 1016.90 1017.44 1018.17 1019.36 1019.65 1020.03 1019.65 1019.43 1018.95 1018.40 1017.90 1017.47
1020.05 1019.96 1019.83 1019.49 1019.33 1018.94 1018.74 1018.34 1017.72 1017.38 1017.43 1017.14 1017.08 1017.15 1016.86 1016.78 1016.67 1016.43 1016.58 1016.67 1016.40 1016.49 1016.72 1016.53 1016.57 1016.87 1016.93 1017.09 1016.90 1017.06 1017.38 1017.13 1017.00 1017.29 1017.71 1018.38 1019.69 1020.26 1020.10 1019.85 1019.61 1019.15 1018.78 1017.94 1017.47
1019.74 1019.73 1019.52 1019.33 1019.20 1018.70 1018.56 1018.13 1017.62 1017.30 1017.14 1017.16 1016.96 1017.27 1016.43 1016.29 1016.37 1016.57 1016.60 1016.51 1016.41 1016.24 1016.62 1016.49 1016.51 1016.88 1017.27 1017.28 1017.41 1017.77 1018.35 1018.53 1017.65 1017.64 1017.72 1018.39 1019.42 1020.15 1020.02 1019.88 1019.73 1019.44 1018.74 1017.90 1017.15
1019.42 1019.32 1019.29 1019.17 1018.88 1018.49 1018.31 1017.86 1017.38 1017.19 1016.99 1017.02 1017.14 1016.86 1016.74 1016.34 1016.51 1016.88 1016.88 1016.90 1016.58 1016.25 1016.30 1016.44 1016.64 1017.44 1017.77 1018.40 1018.99 1019.48 1019.70 1019.53 1018.64 1017.86 1018.10 1018.70 1019.63 1020.07 1020.16 1020.06 1019.86 1019.58 1018.95 1017.98 1016.93
1019.24 1019.22 1019.18 1018.98 1018.58 1018.45 1017.77 1017.55 1017.05 1017.16 1016.89 1016.90 1017.01 1017.16 1017.01 1017.00 1016.91 1017.10 1017.08 1016.90 1017.01 1016.64 1016.45 1016.82 1017.74 1018.64 1019.49 1019.58 1020.19 1020.39 1020.34 1019.85 1019.30 1018.66 1018.48 1019.32 1020.06 1020.20 1020.25 1020.27 1020.30 1019.90 1019.32 1018.32 1017.26
1019.07 1019.15 1019.02 1018.91 1018.65 1018.25 1017.66 1017.43 1017.60 1017.97 1017.50 1017.35 1017.15 1016.97 1016.98 1017.06 1017.14 1017.53 1017.38 1016.95 1017.10 1017.25 1017.41 1017.70 1018.83 1019.78 1019.94 1019.88 1019.93 1020.09 1020.31 1020.07 1019.48 1018.92 1019.06 1019.60 1020.29 1020.35 1020.43 1020.54 1020.55 1020.13 1019.52 1018.69 1017.60
1018.70 1018.79 1018.82 1018.48 1018.49 1018.20 1018.07 1018.88 1019.60 1020.21 1018.97 1017.37 1016.87 1016.90 1016.97 1017.57 1017.52 1017.77 1017.30 1017.28 1017.38 1017.73 1017.92 1018.62 1019.10 1019.38 1019.67 1019.77 1019.95 1019.96 1020.21 1020.26 1019.61 1019.29 1019.44 1020.13 1020.74 1020.70 1020.84 1021.09 1020.90 1020.45 1019.93 1018.94 1017.30
1018.48 1018.61 1018.65 1018.46 1018.38 1018.67 1019.35 1020.22 1020.18 1019.87 1019.79 1017.49 1017.11 1017.03 1017.41 1017.57 1017.88 1018.04 1018.00 1017.78 1017.80 1018.11 1018.59 1018.86 1019.12 1019.15 1019.46 1019.79 1019.82 1019.89 1020.19 1020.65 1020.87 1019.83 1019.51 1020.45 1021.19 1021.45 1021.22 1021.30 1021.19 1020.97 1020.73 1019.69 1018.44
1018.28 1018.38 1018.57 1018.46 1018.66 1019.15 1020.12 1020.62 1020.37 1020.35 1019.74 1018.02 1017.42 1017.36 1017.55 1017.58 1018.02 1018.08 1018.12 1018.19 1018.15 1018.64 1019.07 1019.16 1019.25 1019.31 1019.63 1019.90 1020.07 1020.14 1020.12 1020.70 1020.82 1020.87 1021.11 1020.93 1022.46 1022.56 1022.11 1021.91 1021.59 1021.14 1020.40 1019.62 1018.49
1017.86 1018.30 1018.46 1018.25 1018.58 1019.50 1020.51 1020.53 1020.30 1020.34 1019.46 1018.07 1017.70 1017.59 1017.48 1017.97 1018.36 1018.38 1018.30 1018.31 1018.83 1019.05 1019.66 1019.56 1019.43 1019.57 1019.84 1019.91 1020.10 1020.46 1020.46 1020.76 1021.18 1021.53 1022.10 1022.33 1023.51 1023.51 1023.04 1022.50 1022.27 1021.89 1021.00 1020.18 1019.06
1017.88 1018.27 1018.53 1018.82 1019.35 1019.94 1020.30 1020.45 1020.43 1020.16 1018.66 1018.01 1017.78 1017.74 1017.90 1018.15 1018.52 1018.57 1018.82 1019.10 1019.44 1019.48 1019.84 1019.71 1019.62 1019.89 1020.09 1019.97 1020.18 1020.64 1020.95 1021.55 1022.09 1022.98 1023.74 1023.92 1024.34 1024.72 1024.62 1024.81 1023.86 1023.00 1021.93 1021.13 1019.59
1017.90 1018.39 1018.89 1019.13 1019.52 1019.94 1020.28 1020.35 1020.39 1019.34 1018.14 1018.44 1018.28 1018.27 1018.33 1018.58 1018.87 1019.22 1019.95 1020.64 1020.79 1021.23 1020.81 1020.63 1020.35 1020.37 1020.47 1020.43 1020.57 1021.30 1022.56 1023.87 1024.89 1025.20 1025.17 1024.38 1024.76 1025.03 1024.97 1025.22 1025.27 1024.53 1023.08 1021.91 1020.96
1017.55 1018.70 1019.55 1019.74 1019.80 1019.89 1020.27 1020.28 1019.86 1018.45 1018.37 1018.74 1018.85 1018.76 1018.90 1019.20 1019.61 1019.97 1020.80 1021.61 1022.20 1022.18 1022.45 1022.11 1021.47 1021.19 1021.25 1021.60 1022.14 1023.06 1024.35 1025.99 1027.45 1027.70 1026.77 1024.94 1025.47 1024.93 1024.84 1025.36 1025.37 1024.79 1024.06 1022.67 1021.25
1017.56 1018.98 1019.78 1020.13 1020.07 1020.02 1020.16 1020.07 1019.11 1018.75 1018.79 1019.22 1019.55 1019.66 1019.50 1019.69 1020.23 1020.58 1021.35 1022.26 1022.62 1022.93 1023.15 1023.09 1022.55 1021.90 1021.88 1022.11 1022.66 1023.73 1025.39 1026.61 1028.10 1029.15 1028.49 1026.65 1025.81 1025.24 1025.45 1025.52 1025.58 1024.90 1023.82 1022.93 1021.94
1017.92 1019.04 1019.96 1020.18 1020.27 1020.11 1020.11 1019.66 1019.40 1019.39 1019.72 1019.99 1020.03 1019.98 1019.82 1019.97 1020.46 1020.88 1021.59 1022.63 1023.00 1023.37 1023.51 1023.86 1023.79 1022.75 1022.50 1022.61 1023.42 1024.25 1025.82 1027.41 1028.86 1030.30 1030.05 1027.90 1027.25 1026.61 1026.62 1026.61 1026.42 1025.89 1024.98 1023.68 1022.51
1017.82 1018.92 1020.54 1020.56 1020.42 1020.23 1020.04 1019.67 1019.81 1020.35 1020.40 1020.76 1020.42 1020.28 1020.11 1020.10 1020.54 1021.14 1022.02 1022.87 1023.15 1023.67 1023.79 1024.28 1024.38 1024.42 1023.66 1024.46 1024.90 1025.52 1026.60 1028.19 1029.45 1030.80 1031.78 1030.51 1027.82 1027.34 1027.94 1027.88 1028.15 1027.50 1026.46 1025.04 1023.69
1017.54 1019.67 1020.95 1020.76 1020.73 1020.01 1020.07 1019.92 1020.26 1020.86 1021.18 1021.17 1020.99 1020.38 1020.17 1020.26 1020.75 1021.43 1022.09 1022.78 1023.24 1023.79 1024.32 1024.61 1025.15 1025.67 1025.77 1025.64 1025.69 1026.26 1027.37 1028.97 1030.46 1031.86 1032.26 1031.60 1028.76 1027.67 1028.29 1028.11 1028.59 1028.13 1027.34 1025.84 1024.76
1017.88 1019.80 1020.88 1020.94 1020.32 1020.13 1020.46 1020.62 1020.72 1021.20 1021.31 1021.53 1021.25 1020.71 1020.47 1020.62 1021.17 1021.74 1022.59 1023.29 1023.56 1023.93 1024.46 1024.94 1025.58 1026.33 1026.63 1026.74 1026.34 1027.05 1027.84 1029.27 1030.72 1031.85 1032.49 1031.98 1028.71 1027.88 1028.28 1028.45 1028.77 1028.96 1027.82 1026.59 1025.38
1017.32 1019.22 1020.70 1020.63 1020.02 1019.51 1020.03 1020.32 1020.91 1021.36 1021.43 1021.55 1021.32 1020.96 1020.87 1021.01 1021.40 1022.22 1023.09 1023.67 1023.91 1024.27 1024.62 1025.13 1026.08 1026.25 1026.69 1026.79 1027.02 1027.99 1028.40 1029.39 1030.69 1032.32 1032.17 1031.05 1029.06 1028.03 1028.80 1028.99 1028.75 1028.91 1028.25 1027.34 1026.29
1015.55 1016.96 1017.54 1019.21 1019.10 1018.70 1018.89 1019.19 1020.29 1021.24 1021.65 1021.79 1021.71 1020.96 1020.90 1021.55 1022.04 1022.59 1023.33 1024.05 1024.44 1024.74 1025.32 1025.72 1026.40 1026.73 1026.74 1026.68 1027.20 1027.90 1028.60 1029.58 1030.61 1030.85 1031.15 1030.03 1029.53 1028.21 1028.94 1029.31 1029.33 1029.39 1028.85 1027.83 1026.86
1015.44 1015.82 1017.17 1017.11 1017.13 1017.86 1018.39 1018.75 1019.11 1020.32 1020.84 1021.46 1021.27 1020.81 1021.01 1021.37 1021.52 1022.28 1023.03 1023.89 1024.24 1025.55 1025.96 1026.34 1026.73 1027.11 1027.39 1027.24 1027.63 1028.34 1028.67 1029.43 1030.06 1030.18 1029.98 1029.27 1028.68 1027.62 1028.21 1028.95 1029.40 1029.75 1029.31 1028.72 1027.65
1015.50 1015.81 1015.63 1016.40 1017.01 1017.26 1017.12 1017.43 1018.22 1019.18 1020.55 1020.61 1020.82 1021.10 1021.45 1021.56 1022.09 1022.70 1023.13 1023.59 1024.22 1025.12 1026.34 1026.98 1027.35 1027.95 1028.29 1028.06 1028.31 1028.65 1028.08 1028.82 1029.19 1029.05 1028.90 1028.40 1027.32 1027.21 1027.90 1028.66 1029.11 1029.34 1029.45 1029.40 1028.37
Thickness
5646 5644 5646 5651 5650 5650 5650 5650 5649 5651 5650 5648 5646 5645 5644 5641 5643 5642 5637 5638 5641 5642 5642 5641 5643 5640 5640 5634 5631 5621 5589 5573 5589 5586 5581 5574 5564 5549 5538 5519 5503 5482 5466 5471 5471
5641 5642 5639 5639 5641 5642 5640 5642 5642 5644 5645 5644 5642 5641 5641 5638 5634 5633 5634 5635 5635 5636 5634 5631 5631 5632 5629 5626 5619 5602 5580 5594 5591 5583 5570 5565 5554 5537 5515 5493 5476 5464 5459 5461 5460
5634 5633 5632 5629 5632 5634 5636 5635 5634 5637 5638 5638 5639 5637 5635 5634 5631 5628 5630 5629 5630 5630 5628 5628 5626 5626 5626 5619 5613 5605 5585 5591 5586 5579 5570 5560 5541 5522 5499 5477 5462 5460 5464 5452 5449
5625 5627 5626 5626 5621 5622 5625 5627 5625 5628 5631 5630 5633 5634 5632 5628 5629 5625 5625 5623 5623 5624 5624 5622 5620 5616 5608 5607 5607 5598 5595 5589 5584 5576 5563 5546 5528 5504 5474 5458 5453 5447 5449 5442 5435
5618 5617 5618 5618 5616 5615 5616 5618 5620 5622 5623 5623 5624 5627 5627 5623 5620 5622 5620 5618 5616 5615 5613 5613 5606 5603 5599 5598 5597 5591 5587 5582 5577 5567 5554 5534 5511 5491 5463 5457 5448 5445 5440 5433 5429
5613 5613 5611 5606 5609 5609 5606 5610 5612 5615 5616 5617 5616 5620 5619 5618 5617 5615 5614 5611 5609 5607 5604 5605 5602 5599 5595 5594 5587 5588 5581 5572 5570 5563 5546 5525 5490 5474 5455 5450 5445 5443 5437 5430 5425
5607 5605 5603 5604 5601 5602 5602 5601 5605 5606 5605 5609 5610 5610 5612 5613 5612 5611 5607 5602 5604 5601 5597 5599 5599 5594 5592 5588 5590 5587 5577 5567 5566 5548 5533 5510 5478 5455 5446 5442 5436 5432 5425 5423 5417
5604 5601 5601 5598 5594 5596 5592 5594 5596 5599 5600 5599 5601 5598 5605 5606 5604 5601 5600 5598 5597 5598 5593 5594 5594 5590 5586 5583 5580 5573 5548 5535 5546 5542 5529 5510 5477 5453 5443 5436 5428 5422 5419 5416 5413
5599 5598 5595 5593 5591 5591 5587 5587 5589 5590 5591 5591 5590 5592 5593 5597 5594 5592 5590 5588 5589 5592 5590 5590 5589 5578 5571 5559 5546 5529 5526 5526 5530 5541 5523 5499 5465 5452 5437 5431 5422 5415 5410 5410 5410
5593 5591 5587 5586 5588 5583 5587 5583 5583 5581 5583 5582 5582 5584 5583 5584 5583 5581 5581 5581 5580 5582 5586 5582 5561 5551 5539 5537 5518 5534 5521 5520 5514 5521 5514 5474 5458 5442 5434 5424 5412 5408 5403 5402 5403
5587 5582 5581 5578 5578 5578 5581 5578 5574 5571 5570 5571 5573 5576 5577 5574 5574 5570 5570 5574 5576 5575 5573 5568 5545 5529 5543 5542 5549 5540 5521 5512 5513 5515 5500 5468 5446 5443 5429 5418 5409 5407 5398 5395 5397
5582 5578 5577 5576 5573 5572 5570 5560 5548 5542 5551 5566 5569 5568 5568 5562 5563 5563 5565 5572 5572 5569 5565 5554 5548 5552 5547 5546 5537 5532 5524 5515 5505 5510 5499 5462 5439 5417 5426 5406 5404 5400 5394 5392 5400
5576 5574 5572 5571 5569 5564 5554 5545 5541 5541 5538 5560 5561 5562 5556 5556 5550 5550 5552 5555 5564 5562 5551 5546 5553 5550 5551 5539 5527 5524 5521 5507 5493 5497 5500 5466 5431 5397 5415 5410 5408 5400 5390 5388 5389
5569 5569 5566 5564 5562 5555 5543 5538 5536 5532 5539 5558 5551 5552 5551 5551 5548 5546 5546 5548 5556 5551 5546 5546 5543 5541 5539 5533 5522 5514 5522 5507 5496 5485 5450 5477 5418 5402 5410 5403 5406 5398 5392 5391 5392
5565 5561 5558 5558 5556 5548 5537 5534 5533 5529 5555 5550 5544 5543 5546 5544 5539 5539 5540 5544 5541 5544 5538 5541 5538 5530 5530 5530 5525 5518 5515 5500 5501 5483 5470 5450 5408 5393 5397 5404 5399 5391 5389 5389 5390
5556 5553 5550 5549 5544 5539 5533 5529 5528 5541 5557 5544 5541 5541 5539 5538 5535 5537 5532 5531 5531 5536 5535 5536 5533 5528 5525 5525 5523 5517 5506 5497 5495 5465 5415 5417 5412 5391 5366 5372 5385 5382 5384 5386 5391
5547 5543 5541 5539 5541 5533 5528 5527 5538 5548 5551 5542 5537 5532 5531 5531 5532 5526 5505 5499 5507 5514 5503 5522 5525 5523 5517 5515 5514 5502 5465 5413 5431 5403 5411 5425 5421 5378 5378 5373 5356 5365 5374 5384 5383
5542 5533 5529 5528 5528 5527 5524 5530 5543 5555 5546 5522 5525 5529 5529 5517 5519 5519 5507 5497 5489 5488 5475 5507 5515 5508 5510 5505 5492 5488 5458 5410 5446 5392 5417 5451 5395 5401 5392 5377 5364 5364 5367 5383 5390
5532 5523 5520 5518 5519 5520 5523 5534 5546 5548 5533 5522 5517 5503 5513 5512 5501 5508 5502 5485 5484 5473 5490 5476 5508 5504 5505 5499 5494 5481 5439 5449 5391 5386 5410 5426 5418 5407 5394 5379 5374 5375 5377 5383 5390
5521 5515 5510 5504 5508 5512 5517 5538 5533 5519 5510 5507 5522 5510 5526 5509 5504 5496 5494 5480 5475 5479 5474 5466 5476 5500 5500 5499 5484 5473 5465 5420 5392 5367 5357 5406 5386 5385 5374 5364 5368 5369 5371 5381 5391
5511 5511 5493 5496 5500 5507 5522 5528 5512 5499 5503 5498 5507 5505 5505 5501 5501 5497 5488 5475 5476 5472 5472 5456 5457 5478 5487 5462 5461 5453 5413 5429 5415 5389 5338 5366 5395 5358 5350 5348 5339 5351 5359 5371 5384
5503 5498 5481 5487 5498 5500 5515 5512 5501 5490 5487 5488 5488 5502 5505 5501 5490 5482 5487 5476 5474 5470 5456 5460 5440 5442 5456 5456 5459 5457 5448 5420 5385 5376 5344 5353 5391 5380 5357 5348 5331 5344 5352 5367 5380
5487 5476 5473 5476 5502 5501 5485 5487 5489 5484 5485 5481 5482 5493 5495 5494 5484 5483 5468 5466 5467 5466 5448 5452 5439 5422 5447 5440 5450 5451 5446 5417 5380 5343 5333 5348 5392 5385 5361 5348 5341 5325 5348 5360 5376
5485 5476 5463 5467 5475 5498 5488 5490 5486 5474 5480 5475 5483 5490 5489 5486 5481 5466 5459 5459 5460 5459 5467 5456 5422 5442 5461 5440 5418 5412 5405 5425 5397 5363 5335 5365 5382 5389 5366 5344 5347 5339 5342 5351 5365
5493 5486 5487 5475 5482 5490 5495 5496 5485 5478 5470 5467 5471 5482 5484 5462 5459 5463 5455 5450 5452 5459 5444 5438 5444 5419 5442 5450 5440 5431 5398 5385 5377 5387 5381 5373 5358 5375 5350 5335 5332 5318 5333 5351 5363
5486 5486 5476 5487 5490 5491 5497 5494 5497 5476 5473 5468 5471 5480 5477 5469 5476 5463 5451 5446 5453 5435 5424 5427 5446 5429 5422 5443 5437 5436 5435 5418 5395 5408 5393 5378 5384 5381 5352 5336 5327 5316 5324 5341 5355
5474 5477 5486 5483 5480 5494 5499 5503 5499 5484 5471 5473 5472 5468 5467 5475 5460 5451 5451 5449 5449 5438 5424 5422 5424 5414 5420 5422 5398 5427 5409 5414 5405 5386 5397 5396 5398 5390 5367 5358 5334 5328 5319 5326 5347